Time,TemperatureF,DewpointF,PressureIn,WindDirection,WindDirectionDegrees,WindSpeedMPH,WindSpeedGustMPH,Humidity,HourlyPrecipIn,Conditions,Clouds,dailyrainin,SoftwareType,DateUTC
2013-05-29 00:00:00,66.1,64.9,29.84,SSW,194,0.0,0.0,96,0.00,,,0.00,Wunderground v.1.15,2013-05-29 05:00:00,
2013-05-29 00:05:00,65.9,64.7,29.83,SSW,194,0.0,0.0,96,0.00,,,0.00,Wunderground v.1.15,2013-05-29 05:05:00,
2013-05-29 00:15:00,65.1,63.9,29.79,South,188,0.0,0.0,96,0.00,,,0.00,Wunderground v.1.15,2013-05-29 05:15:00,
2013-05-29 00:20:00,64.9,63.7,29.78,South,188,0.0,0.0,96,0.00,,,0.00,Wunderground v.1.15,2013-05-29 05:20:00,
2013-05-29 00:25:00,64.6,63.1,29.75,South,188,0.0,0.0,95,0.00,,,0.00,Wunderground v.1.15,2013-05-29 05:25:00,
2013-05-29 00:30:00,64.7,63.2,29.75,South,184,0.0,2.0,95,0.00,,,0.00,Wunderground v.1.15,2013-05-29 05:30:00,
2013-05-29 00:40:00,64.6,62.8,29.79,NW,321,1.0,1.0,94,0.00,,,0.00,Wunderground v.1.15,2013-05-29 05:40:00,
2013-05-29 00:45:00,64.5,62.7,29.84,NW,322,2.0,5.0,94,0.00,,,0.00,Wunderground v.1.15,2013-05-29 05:45:00,
2013-05-29 00:50:00,64.6,62.8,29.84,WSW,241,3.0,3.0,94,0.00,,,0.00,Wunderground v.1.15,2013-05-29 05:50:00,
2013-05-29 00:55:00,64.7,62.9,29.86,NNW,338,2.0,3.0,94,0.00,,,0.00,Wunderground v.1.15,2013-05-29 05:55:00,
2013-05-29 01:05:00,64.7,62.9,29.87,NNW,338,0.0,0.0,94,0.00,,,0.00,Wunderground v.1.15,2013-05-29 06:05:00,
2013-05-29 01:15:00,64.4,62.6,29.87,NNW,338,0.0,0.0,94,0.00,,,0.00,Wunderground v.1.15,2013-05-29 06:15:00,
2013-05-29 01:20:00,64.3,62.5,29.86,NNW,338,0.0,0.0,94,0.00,,,0.00,Wunderground v.1.15,2013-05-29 06:20:00,
2013-05-29 01:25:00,64.0,62.2,29.87,NNW,338,0.0,0.0,94,0.00,,,0.00,Wunderground v.1.15,2013-05-29 06:25:00,
2013-05-29 01:35:00,63.7,61.9,29.86,NNW,338,0.0,0.0,94,0.00,,,0.00,Wunderground v.1.15,2013-05-29 06:35:00,
2013-05-29 01:40:00,63.5,61.7,29.84,NNW,338,0.0,0.0,94,0.00,,,0.00,Wunderground v.1.15,2013-05-29 06:40:00,
2013-05-29 01:45:00,63.3,61.8,29.84,NNW,338,0.0,0.0,95,0.00,,,0.00,Wunderground v.1.15,2013-05-29 06:45:00,
2013-05-29 01:50:00,63.1,61.3,29.84,NNW,338,0.0,0.0,94,0.00,,,0.00,Wunderground v.1.15,2013-05-29 06:50:00,
2013-05-29 02:00:00,62.5,60.7,29.84,NNW,338,0.0,0.0,94,0.00,,,0.00,Wunderground v.1.15,2013-05-29 07:00:00,
2013-05-29 02:05:00,62.1,60.7,29.85,NNW,338,0.0,0.0,95,0.00,,,0.00,Wunderground v.1.15,2013-05-29 07:05:00,
2013-05-29 02:15:00,62.1,60.7,29.84,North,355,0.0,0.0,95,0.00,,,0.00,Wunderground v.1.15,2013-05-29 07:15:00,
2013-05-29 02:20:00,62.1,60.7,29.85,North,355,0.0,0.0,95,0.00,,,0.00,Wunderground v.1.15,2013-05-29 07:20:00,
2013-05-29 02:30:00,62.1,60.7,29.86,North,355,0.0,0.0,95,0.00,,,0.00,Wunderground v.1.15,2013-05-29 07:30:00,
2013-05-29 02:35:00,62.1,60.7,29.86,North,355,0.0,0.0,95,0.00,,,0.00,Wunderground v.1.15,2013-05-29 07:35:00,
2013-05-29 02:40:00,62.0,60.6,29.86,North,355,0.0,0.0,95,0.00,,,0.00,Wunderground v.1.15,2013-05-29 07:40:00,
2013-05-29 02:45:00,61.9,60.5,29.87,West,262,0.0,0.0,95,0.00,,,0.00,Wunderground v.1.15,2013-05-29 07:45:00,
2013-05-29 02:55:00,62.0,60.6,29.88,WNW,284,0.0,0.0,95,0.00,,,0.00,Wunderground v.1.15,2013-05-29 07:55:00,
2013-05-29 03:00:00,62.1,60.4,29.88,NW,319,0.0,0.0,94,0.00,,,0.00,Wunderground v.1.15,2013-05-29 08:00:00,
2013-05-29 03:05:00,62.2,60.5,29.88,NW,319,0.0,0.0,94,0.00,,,0.00,Wunderground v.1.15,2013-05-29 08:05:00,
2013-05-29 03:15:00,62.3,60.2,29.87,NE,41,0.0,0.0,93,0.00,,,0.00,Wunderground v.1.15,2013-05-29 08:15:00,
2013-05-29 03:20:00,62.3,60.2,29.87,NE,41,0.0,0.0,93,0.00,,,0.00,Wunderground v.1.15,2013-05-29 08:20:00,
2013-05-29 03:25:00,62.2,60.2,29.87,NE,41,0.0,0.0,93,0.00,,,0.00,Wunderground v.1.15,2013-05-29 08:25:00,
2013-05-29 03:30:00,61.8,59.8,29.87,NE,41,0.0,0.0,93,0.00,,,0.00,Wunderground v.1.15,2013-05-29 08:30:00,
2013-05-29 03:35:00,61.4,59.4,29.87,NE,41,0.0,0.0,93,0.00,,,0.00,Wunderground v.1.15,2013-05-29 08:35:00,
2013-05-29 03:40:00,61.2,59.2,29.86,NE,41,0.0,0.0,93,0.00,,,0.00,Wunderground v.1.15,2013-05-29 08:40:00,
2013-05-29 03:45:00,61.0,59.0,29.87,NE,41,0.0,0.0,93,0.00,,,0.00,Wunderground v.1.15,2013-05-29 08:45:00,
2013-05-29 03:50:00,60.8,59.1,29.87,NE,41,0.0,0.0,94,0.00,,,0.00,Wunderground v.1.15,2013-05-29 08:50:00,
2013-05-29 03:55:00,60.7,59.0,29.88,NE,41,0.0,0.0,94,0.00,,,0.00,Wunderground v.1.15,2013-05-29 08:55:00,
2013-05-29 04:00:00,60.7,59.0,29.89,NE,41,0.0,0.0,94,0.00,,,0.00,Wunderground v.1.15,2013-05-29 09:00:00,
2013-05-29 04:05:00,60.7,59.0,29.89,NE,41,0.0,0.0,94,0.00,,,0.00,Wunderground v.1.15,2013-05-29 09:05:00,
2013-05-29 04:15:00,60.7,59.0,29.90,NE,41,0.0,0.0,94,0.00,,,0.00,Wunderground v.1.15,2013-05-29 09:15:00,
2013-05-29 04:20:00,60.9,59.2,29.90,NE,41,0.0,1.0,94,0.00,,,0.00,Wunderground v.1.15,2013-05-29 09:20:00,
2013-05-29 04:25:00,61.1,59.4,29.90,NE,41,0.0,1.0,94,0.00,,,0.00,Wunderground v.1.15,2013-05-29 09:25:00,
2013-05-29 04:35:00,61.6,59.6,29.89,NE,41,0.0,0.0,93,0.00,,,0.00,Wunderground v.1.15,2013-05-29 09:35:00,
2013-05-29 04:40:00,62.0,60.0,29.88,SE,139,0.0,0.0,93,0.00,,,0.00,Wunderground v.1.15,2013-05-29 09:40:00,
2013-05-29 04:45:00,62.9,60.2,29.86,SE,134,0.0,7.0,91,0.00,,,0.00,Wunderground v.1.15,2013-05-29 09:45:00,
2013-05-29 04:50:00,63.7,60.4,29.86,SSE,155,0.0,0.0,89,0.00,,,0.00,Wunderground v.1.15,2013-05-29 09:50:00,
2013-05-29 04:55:00,63.8,60.2,29.85,SSE,155,0.0,0.0,88,0.00,,,0.00,Wunderground v.1.15,2013-05-29 09:55:00,
2013-05-29 05:00:00,63.3,60.0,29.85,SSE,155,0.0,0.0,89,0.00,,,0.00,Wunderground v.1.15,2013-05-29 10:00:00,
2013-05-29 05:05:00,63.1,60.1,29.85,SSE,155,0.0,0.0,90,0.00,,,0.00,Wunderground v.1.15,2013-05-29 10:05:00,
2013-05-29 05:15:00,63.0,60.0,29.82,South,178,0.0,0.0,90,0.00,,,0.01,Wunderground v.1.15,2013-05-29 10:15:00,
2013-05-29 05:20:00,62.7,59.7,29.83,East,86,0.0,1.0,90,0.00,,,0.01,Wunderground v.1.15,2013-05-29 10:20:00,
2013-05-29 05:30:00,62.1,59.4,29.84,NE,50,0.0,0.0,91,0.00,,,0.01,Wunderground v.1.15,2013-05-29 10:30:00,
2013-05-29 05:40:00,61.6,59.3,29.89,NNW,341,2.0,2.0,92,0.00,,,0.01,Wunderground v.1.15,2013-05-29 10:40:00,
2013-05-29 05:45:00,61.6,59.6,29.88,NNW,339,2.0,3.0,93,0.00,,,0.01,Wunderground v.1.15,2013-05-29 10:45:00,
2013-05-29 05:50:00,61.6,59.6,29.90,North,360,1.0,5.0,93,0.00,,,0.01,Wunderground v.1.15,2013-05-29 10:50:00,
2013-05-29 05:55:00,61.7,59.7,29.90,North,350,2.0,5.0,93,0.00,,,0.01,Wunderground v.1.15,2013-05-29 10:55:00,
2013-05-29 06:05:00,61.7,59.7,29.91,North,349,1.0,2.0,93,0.00,,,0.01,Wunderground v.1.15,2013-05-29 11:05:00,
2013-05-29 06:15:00,61.7,59.7,29.92,North,360,1.0,1.0,93,0.00,,,0.01,Wunderground v.1.15,2013-05-29 11:15:00,
2013-05-29 06:20:00,61.7,59.7,29.93,North,360,0.0,0.0,93,0.00,,,0.01,Wunderground v.1.15,2013-05-29 11:20:00,
2013-05-29 06:25:00,61.7,59.7,29.93,North,360,0.0,0.0,93,0.00,,,0.01,Wunderground v.1.15,2013-05-29 11:25:00,
2013-05-29 06:35:00,61.5,59.5,29.94,North,360,0.0,0.0,93,0.00,,,0.01,Wunderground v.1.15,2013-05-29 11:35:00,
2013-05-29 06:45:00,61.2,59.5,29.93,North,360,0.0,0.0,94,0.00,,,0.01,Wunderground v.1.15,2013-05-29 11:45:00,
2013-05-29 06:50:00,61.2,59.5,29.93,North,360,0.0,0.0,94,0.00,,,0.01,Wunderground v.1.15,2013-05-29 11:50:00,
2013-05-29 07:00:00,61.3,59.6,29.95,North,360,0.0,0.0,94,0.00,,,0.01,Wunderground v.1.15,2013-05-29 12:00:00,
2013-05-29 07:05:00,61.3,59.9,29.95,North,360,0.0,0.0,95,0.00,,,0.01,Wunderground v.1.15,2013-05-29 12:05:00,
2013-05-29 07:15:00,61.5,60.1,29.96,North,360,0.0,0.0,95,0.00,,,0.01,Wunderground v.1.15,2013-05-29 12:15:00,
2013-05-29 07:20:00,61.6,60.2,29.96,North,360,0.0,0.0,95,0.00,,,0.01,Wunderground v.1.15,2013-05-29 12:20:00,
2013-05-29 07:25:00,61.7,60.3,29.95,North,360,0.0,0.0,95,0.00,,,0.01,Wunderground v.1.15,2013-05-29 12:25:00,
2013-05-29 07:30:00,61.9,60.5,29.95,North,360,0.0,0.0,95,0.00,,,0.01,Wunderground v.1.15,2013-05-29 12:30:00,
2013-05-29 07:35:00,62.2,60.8,29.96,North,360,0.0,0.0,95,0.00,,,0.01,Wunderground v.1.15,2013-05-29 12:35:00,
2013-05-29 07:40:00,62.3,60.8,29.95,North,360,0.0,0.0,95,0.00,,,0.01,Wunderground v.1.15,2013-05-29 12:40:00,
2013-05-29 07:45:00,62.6,61.1,29.94,North,360,0.0,0.0,95,0.00,,,0.01,Wunderground v.1.15,2013-05-29 12:45:00,
2013-05-29 07:55:00,63.2,61.7,29.95,North,360,0.0,0.0,95,0.00,,,0.01,Wunderground v.1.15,2013-05-29 12:55:00,
2013-05-29 08:00:00,63.2,61.7,29.95,North,360,0.0,0.0,95,0.00,,,0.01,Wunderground v.1.15,2013-05-29 13:00:00,
2013-05-29 08:05:00,63.1,61.3,29.95,North,360,0.0,0.0,94,0.00,,,0.01,Wunderground v.1.15,2013-05-29 13:05:00,
2013-05-29 08:15:00,64.1,62.6,29.95,North,360,0.0,0.0,95,0.00,,,0.01,Wunderground v.1.15,2013-05-29 13:15:00,
2013-05-29 08:20:00,65.0,63.5,29.95,WNW,299,0.0,0.0,95,0.00,,,0.01,Wunderground v.1.15,2013-05-29 13:20:00,
2013-05-29 08:25:00,65.8,64.0,29.95,WNW,300,0.0,0.0,94,0.00,,,0.01,Wunderground v.1.15,2013-05-29 13:25:00,
2013-05-29 08:30:00,66.8,64.7,29.96,WNW,300,0.0,0.0,93,0.00,,,0.01,Wunderground v.1.15,2013-05-29 13:30:00,
2013-05-29 08:35:00,67.5,65.1,29.96,WNW,300,0.0,0.0,92,0.00,,,0.01,Wunderground v.1.15,2013-05-29 13:35:00,
2013-05-29 08:45:00,68.4,65.4,29.96,WNW,299,0.0,0.0,90,0.00,,,0.01,Wunderground v.1.15,2013-05-29 13:45:00,
2013-05-29 08:50:00,69.1,65.1,29.96,WSW,246,0.0,0.0,87,0.00,,,0.01,Wunderground v.1.15,2013-05-29 13:50:00,
2013-05-29 08:55:00,69.9,65.9,29.96,WSW,252,0.0,0.0,87,0.00,,,0.01,Wunderground v.1.15,2013-05-29 13:55:00,
2013-05-29 09:00:00,70.6,65.5,29.96,SSE,163,0.0,0.0,84,0.00,,,0.01,Wunderground v.1.15,2013-05-29 14:00:00,
2013-05-29 09:05:00,69.7,64.0,29.96,SE,134,0.0,0.0,82,0.00,,,0.01,Wunderground v.1.15,2013-05-29 14:05:00,
2013-05-29 09:15:00,69.6,64.2,29.95,SE,126,0.0,0.0,83,0.00,,,0.01,Wunderground v.1.15,2013-05-29 14:15:00,
2013-05-29 09:20:00,70.2,65.1,29.95,SSW,209,0.0,0.0,84,0.00,,,0.01,Wunderground v.1.15,2013-05-29 14:20:00,
2013-05-29 09:25:00,70.7,64.6,29.95,NNW,342,0.0,0.0,81,0.00,,,0.01,Wunderground v.1.15,2013-05-29 14:25:00,
2013-05-29 09:30:00,70.6,64.1,29.95,SSE,149,0.0,0.0,80,0.00,,,0.01,Wunderground v.1.15,2013-05-29 14:30:00,
2013-05-29 09:40:00,70.4,64.3,29.95,SSE,161,0.0,0.0,81,0.00,,,0.01,Wunderground v.1.15,2013-05-29 14:40:00,
2013-05-29 09:50:00,71.6,65.1,29.95,SW,219,0.0,0.0,80,0.00,,,0.01,Wunderground v.1.15,2013-05-29 14:50:00,
2013-05-29 10:00:00,72.1,65.6,29.94,ESE,121,0.0,0.0,80,0.00,,,0.01,Wunderground v.1.15,2013-05-29 15:00:00,
2013-05-29 10:05:00,72.2,65.3,29.95,ESE,104,0.0,0.0,79,0.00,,,0.01,Wunderground v.1.15,2013-05-29 15:05:00,
2013-05-29 10:15:00,73.5,66.2,29.95,SW,230,0.0,0.0,78,0.00,,,0.01,Wunderground v.1.15,2013-05-29 15:15:00,
2013-05-29 10:20:00,74.2,66.5,29.94,South,188,0.0,0.0,77,0.00,,,0.01,Wunderground v.1.15,2013-05-29 15:20:00,
2013-05-29 10:30:00,73.7,66.4,29.94,SSE,158,0.0,0.0,78,0.00,,,0.01,Wunderground v.1.15,2013-05-29 15:30:00,
2013-05-29 10:35:00,73.4,65.7,29.94,South,171,1.0,1.0,77,0.00,,,0.01,Wunderground v.1.15,2013-05-29 15:35:00,
2013-05-29 10:40:00,73.5,65.8,29.94,SE,141,1.0,1.0,77,0.00,,,0.01,Wunderground v.1.15,2013-05-29 15:40:00,
2013-05-29 10:45:00,74.0,66.7,29.94,South,176,1.0,1.0,78,0.00,,,0.01,Wunderground v.1.15,2013-05-29 15:45:00,
2013-05-29 10:55:00,74.6,67.3,29.94,SSE,152,1.0,1.0,78,0.00,,,0.01,Wunderground v.1.15,2013-05-29 15:55:00,
2013-05-29 11:00:00,75.6,68.3,29.94,SSE,153,1.0,6.0,78,0.00,,,0.01,Wunderground v.1.15,2013-05-29 16:00:00,
2013-05-29 11:05:00,75.1,67.4,29.94,ESE,116,1.0,6.0,77,0.00,,,0.01,Wunderground v.1.15,2013-05-29 16:05:00,
2013-05-29 11:15:00,75.1,67.8,29.94,SSE,153,2.0,2.0,78,0.00,,,0.01,Wunderground v.1.15,2013-05-29 16:15:00,
2013-05-29 11:20:00,75.1,67.8,29.93,SSE,168,1.0,1.0,78,0.00,,,0.01,Wunderground v.1.15,2013-05-29 16:20:00,
2013-05-29 11:25:00,75.5,68.2,29.93,SSE,159,1.0,1.0,78,0.00,,,0.01,Wunderground v.1.15,2013-05-29 16:25:00,
2013-05-29 11:30:00,75.6,68.3,29.93,South,169,1.0,2.0,78,0.00,,,0.01,Wunderground v.1.15,2013-05-29 16:30:00,
2013-05-29 11:35:00,76.0,68.6,29.93,SE,130,1.0,2.0,78,0.00,,,0.01,Wunderground v.1.15,2013-05-29 16:35:00,
2013-05-29 11:40:00,76.3,68.2,29.93,SE,130,1.0,5.0,76,0.00,,,0.01,Wunderground v.1.15,2013-05-29 16:40:00,
2013-05-29 11:50:00,76.7,68.9,29.93,SSE,155,1.0,1.0,77,0.00,,,0.01,Wunderground v.1.15,2013-05-29 16:50:00,
2013-05-29 11:55:00,77.1,69.3,29.92,South,181,1.0,1.0,77,0.00,,,0.01,Wunderground v.1.15,2013-05-29 16:55:00,
2013-05-29 12:00:00,77.6,69.4,29.93,SE,145,1.0,1.0,76,0.00,,,0.01,Wunderground v.1.15,2013-05-29 17:00:00,
2013-05-29 12:05:00,77.3,68.8,29.92,SSE,161,1.0,1.0,75,0.00,,,0.01,Wunderground v.1.15,2013-05-29 17:05:00,
2013-05-29 12:15:00,77.5,69.3,29.92,SE,143,1.0,4.0,76,0.00,,,0.01,Wunderground v.1.15,2013-05-29 17:15:00,
2013-05-29 12:20:00,77.3,69.1,29.92,SSE,167,1.0,1.0,76,0.00,,,0.01,Wunderground v.1.15,2013-05-29 17:20:00,
2013-05-29 12:30:00,77.1,68.6,29.92,South,175,1.0,1.0,75,0.00,,,0.01,Wunderground v.1.15,2013-05-29 17:30:00,
2013-05-29 12:35:00,77.5,69.3,29.92,South,186,1.0,1.0,76,0.00,,,0.01,Wunderground v.1.15,2013-05-29 17:35:00,
2013-05-29 12:40:00,77.9,68.9,29.92,SE,128,2.0,2.0,74,0.00,,,0.01,Wunderground v.1.15,2013-05-29 17:40:00,
2013-05-29 12:45:00,78.2,69.6,29.92,SSE,148,2.0,2.0,75,0.00,,,0.01,Wunderground v.1.15,2013-05-29 17:45:00,
2013-05-29 12:50:00,78.7,70.5,29.92,SSE,155,1.0,1.0,76,0.00,,,0.01,Wunderground v.1.15,2013-05-29 17:50:00,
2013-05-29 12:55:00,78.7,70.5,29.91,SE,144,1.0,2.0,76,0.00,,,0.01,Wunderground v.1.15,2013-05-29 17:55:00,
2013-05-29 13:05:00,78.5,69.9,29.91,SSE,161,1.0,1.0,75,0.00,,,0.01,Wunderground v.1.15,2013-05-29 18:05:00,
2013-05-29 13:15:00,79.1,69.7,29.91,ESE,110,1.0,2.0,73,0.00,,,0.01,Wunderground v.1.15,2013-05-29 18:15:00,
2013-05-29 13:20:00,79.5,71.7,29.91,WSW,244,1.0,2.0,77,0.00,,,0.01,Wunderground v.1.15,2013-05-29 18:20:00,
2013-05-29 13:30:00,79.0,70.8,29.91,SSE,156,2.0,2.0,76,0.00,,,0.01,Wunderground v.1.15,2013-05-29 18:30:00,
2013-05-29 13:35:00,79.1,70.1,29.91,SE,129,2.0,4.0,74,0.00,,,0.01,Wunderground v.1.15,2013-05-29 18:35:00,
2013-05-29 13:40:00,79.4,70.8,29.92,SSE,163,2.0,4.0,75,0.00,,,0.01,Wunderground v.1.15,2013-05-29 18:40:00,
2013-05-29 13:45:00,78.7,70.1,29.92,South,178,3.0,4.0,75,0.00,,,0.01,Wunderground v.1.15,2013-05-29 18:45:00,
2013-05-29 13:50:00,78.7,70.5,29.91,SSE,163,3.0,3.0,76,0.00,,,0.01,Wunderground v.1.15,2013-05-29 18:50:00,
2013-05-29 13:55:00,79.3,70.3,29.91,ESE,123,2.0,3.0,74,0.00,,,0.01,Wunderground v.1.15,2013-05-29 18:55:00,
2013-05-29 14:05:00,79.4,70.8,29.91,SSE,156,2.0,2.0,75,0.00,,,0.01,Wunderground v.1.15,2013-05-29 19:05:00,
2013-05-29 14:15:00,79.1,70.9,29.90,SE,137,2.0,4.0,76,0.00,,,0.01,Wunderground v.1.15,2013-05-29 19:15:00,
2013-05-29 14:20:00,79.6,71.4,29.90,SSE,165,1.0,1.0,76,0.00,,,0.01,Wunderground v.1.15,2013-05-29 19:20:00,
2013-05-29 14:30:00,79.5,71.7,29.90,SE,134,1.0,1.0,77,0.00,,,0.01,Wunderground v.1.15,2013-05-29 19:30:00,
2013-05-29 14:35:00,80.0,71.8,29.90,SSE,156,1.0,1.0,76,0.00,,,0.01,Wunderground v.1.15,2013-05-29 19:35:00,
2013-05-29 14:40:00,80.2,71.9,29.90,SE,128,2.0,4.0,76,0.00,,,0.01,Wunderground v.1.15,2013-05-29 19:40:00,
2013-05-29 14:45:00,80.1,71.1,29.90,SSE,165,2.0,4.0,74,0.00,,,0.01,Wunderground v.1.15,2013-05-29 19:45:00,
2013-05-29 14:50:00,80.2,71.6,29.90,SE,142,1.0,1.0,75,0.00,,,0.01,Wunderground v.1.15,2013-05-29 19:50:00,
2013-05-29 14:55:00,80.1,71.5,29.90,South,180,2.0,2.0,75,0.00,,,0.01,Wunderground v.1.15,2013-05-29 19:55:00,
2013-05-29 15:05:00,80.6,71.9,29.89,SE,134,2.0,4.0,75,0.00,,,0.01,Wunderground v.1.15,2013-05-29 20:05:00,
2013-05-29 15:15:00,80.8,71.3,29.89,SSE,166,1.0,2.0,73,0.00,,,0.01,Wunderground v.1.15,2013-05-29 20:15:00,
2013-05-29 15:20:00,81.2,71.3,29.89,SSE,168,1.0,1.0,72,0.00,,,0.01,Wunderground v.1.15,2013-05-29 20:20:00,
2013-05-29 15:25:00,81.5,72.0,29.89,SSE,153,1.0,1.0,73,0.00,,,0.01,Wunderground v.1.15,2013-05-29 20:25:00,
2013-05-29 15:30:00,81.4,71.5,29.88,SSE,162,1.0,1.0,72,0.00,,,0.01,Wunderground v.1.15,2013-05-29 20:30:00,
2013-05-29 15:35:00,81.4,71.5,29.88,SSE,148,1.0,5.0,72,0.00,,,0.01,Wunderground v.1.15,2013-05-29 20:35:00,
2013-05-29 15:45:00,81.1,72.0,29.88,SSE,148,2.0,7.0,74,0.00,,,0.01,Wunderground v.1.15,2013-05-29 20:45:00,
2013-05-29 15:50:00,81.8,71.5,29.87,SE,139,2.0,2.0,71,0.00,,,0.01,Wunderground v.1.15,2013-05-29 20:50:00,
2013-05-29 15:55:00,81.8,71.5,29.87,ESE,117,2.0,2.0,71,0.00,,,0.01,Wunderground v.1.15,2013-05-29 20:55:00,
2013-05-29 16:00:00,81.7,70.5,29.87,SE,128,3.0,5.0,69,0.00,,,0.01,Wunderground v.1.15,2013-05-29 21:00:00,
2013-05-29 16:05:00,81.2,71.7,29.86,SSE,161,2.0,5.0,73,0.00,,,0.01,Wunderground v.1.15,2013-05-29 21:05:00,
2013-05-29 16:15:00,81.5,71.6,29.86,SSE,160,3.0,4.0,72,0.00,,,0.01,Wunderground v.1.15,2013-05-29 21:15:00,
2013-05-29 16:20:00,81.5,70.8,29.86,SE,140,4.0,6.0,70,0.00,,,0.01,Wunderground v.1.15,2013-05-29 21:20:00,
2013-05-29 16:25:00,81.7,71.0,29.86,SE,141,5.0,6.0,70,0.00,,,0.01,Wunderground v.1.15,2013-05-29 21:25:00,
2013-05-29 16:30:00,82.2,71.9,29.85,SSE,155,4.0,4.0,71,0.00,,,0.01,Wunderground v.1.15,2013-05-29 21:30:00,
2013-05-29 16:40:00,82.5,71.7,29.85,SE,126,3.0,8.0,70,0.00,,,0.01,Wunderground v.1.15,2013-05-29 21:40:00,
2013-05-29 16:45:00,82.0,70.4,29.84,SSE,154,4.0,8.0,68,0.00,,,0.01,Wunderground v.1.15,2013-05-29 21:45:00,
2013-05-29 16:50:00,81.2,70.1,29.84,SE,144,4.0,6.0,69,0.00,,,0.01,Wunderground v.1.15,2013-05-29 21:50:00,
2013-05-29 17:00:00,81.9,70.7,29.84,SSE,152,4.0,6.0,69,0.00,,,0.01,Wunderground v.1.15,2013-05-29 22:00:00,
2013-05-29 17:05:00,81.8,68.4,29.84,SE,144,5.0,8.0,64,0.00,,,0.01,Wunderground v.1.15,2013-05-29 22:05:00,
2013-05-29 17:15:00,81.7,69.7,29.84,SSE,150,5.0,8.0,67,0.00,,,0.01,Wunderground v.1.15,2013-05-29 22:15:00,
2013-05-29 17:20:00,81.9,69.9,29.84,SE,143,3.0,6.0,67,0.00,,,0.01,Wunderground v.1.15,2013-05-29 22:20:00,
2013-05-29 17:25:00,81.7,69.7,29.85,SSE,150,4.0,6.0,67,0.00,,,0.01,Wunderground v.1.15,2013-05-29 22:25:00,
2013-05-29 17:30:00,81.7,70.1,29.85,SSE,154,3.0,3.0,68,0.00,,,0.01,Wunderground v.1.15,2013-05-29 22:30:00,
2013-05-29 17:35:00,81.5,69.0,29.85,SE,145,2.0,5.0,66,0.00,,,0.01,Wunderground v.1.15,2013-05-29 22:35:00,
2013-05-29 17:40:00,81.3,68.9,29.85,SE,143,4.0,4.0,66,0.00,,,0.01,Wunderground v.1.15,2013-05-29 22:40:00,
2013-05-29 17:50:00,81.1,68.2,29.86,SSE,163,4.0,4.0,65,0.00,,,0.01,Wunderground v.1.15,2013-05-29 22:50:00,
2013-05-29 18:00:00,80.6,68.6,29.85,South,171,1.0,1.0,67,0.00,,,0.01,Wunderground v.1.15,2013-05-29 23:00:00,
2013-05-29 18:05:00,80.4,68.0,29.85,SE,146,1.0,1.0,66,0.00,,,0.01,Wunderground v.1.15,2013-05-29 23:05:00,
2013-05-29 18:15:00,80.3,67.9,29.85,SSE,167,2.0,3.0,66,0.00,,,0.01,Wunderground v.1.15,2013-05-29 23:15:00,
2013-05-29 18:25:00,80.1,67.7,29.85,South,178,3.0,4.0,66,0.00,,,0.01,Wunderground v.1.15,2013-05-29 23:25:00,
2013-05-29 18:30:00,80.0,68.1,29.86,South,173,4.0,4.0,67,0.00,,,0.01,Wunderground v.1.15,2013-05-29 23:30:00,
2013-05-29 18:35:00,79.7,67.8,29.85,SSE,162,3.0,4.0,67,0.00,,,0.01,Wunderground v.1.15,2013-05-29 23:35:00,
2013-05-29 18:45:00,79.4,67.9,29.86,SSE,152,2.0,2.0,68,0.00,,,0.01,Wunderground v.1.15,2013-05-29 23:45:00,
2013-05-29 18:50:00,79.3,67.8,29.86,ESE,105,1.0,1.0,68,0.00,,,0.01,Wunderground v.1.15,2013-05-29 23:50:00,
2013-05-29 18:55:00,79.2,67.7,29.86,SE,138,0.0,1.0,68,0.00,,,0.01,Wunderground v.1.15,2013-05-29 23:55:00,
2013-05-29 19:00:00,79.1,68.1,29.87,ESE,122,0.0,0.0,69,0.00,,,0.01,Wunderground v.1.15,2013-05-30 00:00:00,
2013-05-29 19:05:00,78.9,68.3,29.87,ESE,122,0.0,0.0,70,0.00,,,0.01,Wunderground v.1.15,2013-05-30 00:05:00,
2013-05-29 19:15:00,78.3,68.5,29.87,SE,127,0.0,0.0,72,0.00,,,0.01,Wunderground v.1.15,2013-05-30 00:15:00,
2013-05-29 19:20:00,78.1,68.3,29.87,SE,127,0.0,0.0,72,0.00,,,0.01,Wunderground v.1.15,2013-05-30 00:20:00,
2013-05-29 19:30:00,77.7,68.4,29.87,SE,127,0.0,0.0,73,0.00,,,0.01,Wunderground v.1.15,2013-05-30 00:30:00,
2013-05-29 19:35:00,77.5,68.6,29.86,SE,126,0.0,0.0,74,0.00,,,0.01,Wunderground v.1.15,2013-05-30 00:35:00,
2013-05-29 19:40:00,77.4,68.5,29.86,SE,127,0.0,0.0,74,0.00,,,0.01,Wunderground v.1.15,2013-05-30 00:40:00,
2013-05-29 19:50:00,77.4,68.5,29.85,SE,130,0.0,0.0,74,0.00,,,0.01,Wunderground v.1.15,2013-05-30 00:50:00,
2013-05-29 19:55:00,77.3,68.8,29.85,SE,130,0.0,0.0,75,0.00,,,0.01,Wunderground v.1.15,2013-05-30 00:55:00,
2013-05-29 20:00:00,77.3,68.8,29.85,SE,137,0.0,0.0,75,0.00,,,0.01,Wunderground v.1.15,2013-05-30 01:00:00,
2013-05-29 20:05:00,77.1,68.6,29.85,SE,139,0.0,0.0,75,0.00,,,0.01,Wunderground v.1.15,2013-05-30 01:05:00,
2013-05-29 20:15:00,76.8,69.0,29.85,SE,140,0.0,0.0,77,0.00,,,0.01,Wunderground v.1.15,2013-05-30 01:15:00,
2013-05-29 20:20:00,76.6,68.8,29.86,SE,139,0.0,0.0,77,0.00,,,0.01,Wunderground v.1.15,2013-05-30 01:20:00,
2013-05-29 20:25:00,76.3,68.9,29.86,SE,140,0.0,0.0,78,0.00,,,0.01,Wunderground v.1.15,2013-05-30 01:25:00,
2013-05-29 20:30:00,75.9,68.9,29.86,SE,144,0.0,2.0,79,0.00,,,0.01,Wunderground v.1.15,2013-05-30 01:30:00,
2013-05-29 20:35:00,75.7,69.1,29.86,SE,144,0.0,2.0,80,0.00,,,0.01,Wunderground v.1.15,2013-05-30 01:35:00,
2013-05-29 20:40:00,75.5,68.9,29.85,SE,144,0.0,1.0,80,0.00,,,0.01,Wunderground v.1.15,2013-05-30 01:40:00,
2013-05-29 20:50:00,75.5,69.3,29.85,SE,144,0.0,0.0,81,0.00,,,0.01,Wunderground v.1.15,2013-05-30 01:50:00,
2013-05-29 20:55:00,75.6,69.4,29.85,SSE,155,0.0,1.0,81,0.00,,,0.01,Wunderground v.1.15,2013-05-30 01:55:00,
2013-05-29 21:00:00,75.8,69.2,29.85,South,171,0.0,0.0,80,0.00,,,0.01,Wunderground v.1.15,2013-05-30 02:00:00,
2013-05-29 21:05:00,75.9,69.3,29.85,South,171,0.0,0.0,80,0.00,,,0.01,Wunderground v.1.15,2013-05-30 02:05:00,
2013-05-29 21:15:00,75.9,69.3,29.85,South,171,0.0,1.0,80,0.00,,,0.01,Wunderground v.1.15,2013-05-30 02:15:00,
2013-05-29 21:20:00,75.9,69.3,29.85,South,171,0.0,0.0,80,0.00,,,0.01,Wunderground v.1.15,2013-05-30 02:20:00,
2013-05-29 21:25:00,75.9,69.6,29.86,South,171,0.0,0.0,81,0.00,,,0.01,Wunderground v.1.15,2013-05-30 02:25:00,
2013-05-29 21:30:00,75.8,69.6,29.86,South,171,0.0,0.0,81,0.00,,,0.01,Wunderground v.1.15,2013-05-30 02:30:00,
2013-05-29 21:40:00,75.5,69.3,29.86,SSE,159,0.0,0.0,81,0.00,,,0.01,Wunderground v.1.15,2013-05-30 02:40:00,
2013-05-29 21:45:00,75.5,69.3,29.87,SSE,166,0.0,0.0,81,0.00,,,0.01,Wunderground v.1.15,2013-05-30 02:45:00,
2013-05-29 21:50:00,75.4,69.5,29.87,SSE,167,0.0,2.0,82,0.00,,,0.01,Wunderground v.1.15,2013-05-30 02:50:00,
2013-05-29 22:00:00,75.3,69.1,29.87,SE,144,1.0,1.0,81,0.00,,,0.01,Wunderground v.1.15,2013-05-30 03:00:00,
2013-05-29 22:05:00,75.3,69.1,29.88,SE,133,1.0,1.0,81,0.00,,,0.01,Wunderground v.1.15,2013-05-30 03:05:00,
2013-05-29 22:15:00,75.5,68.9,29.88,SSE,157,1.0,4.0,80,0.00,,,0.01,Wunderground v.1.15,2013-05-30 03:15:00,
2013-05-29 22:20:00,75.6,69.0,29.88,SSE,160,1.0,1.0,80,0.00,,,0.01,Wunderground v.1.15,2013-05-30 03:20:00,
2013-05-29 22:30:00,75.7,69.1,29.88,SSE,160,2.0,2.0,80,0.00,,,0.01,Wunderground v.1.15,2013-05-30 03:30:00,
2013-05-29 22:35:00,75.6,69.0,29.88,SE,140,2.0,2.0,80,0.00,,,0.01,Wunderground v.1.15,2013-05-30 03:35:00,
2013-05-29 22:45:00,75.4,68.8,29.88,SE,136,2.0,5.0,80,0.00,,,0.01,Wunderground v.1.15,2013-05-30 03:45:00,
2013-05-29 22:50:00,75.3,68.7,29.88,SSE,159,2.0,2.0,80,0.00,,,0.01,Wunderground v.1.15,2013-05-30 03:50:00,
2013-05-29 22:55:00,75.0,68.8,29.89,SSE,151,2.0,2.0,81,0.00,,,0.01,Wunderground v.1.15,2013-05-30 03:55:00,
2013-05-29 23:00:00,74.8,68.6,29.89,SSE,165,2.0,2.0,81,0.00,,,0.01,Wunderground v.1.15,2013-05-30 04:00:00,
2013-05-29 23:05:00,74.7,68.5,29.89,SE,146,2.0,5.0,81,0.00,,,0.01,Wunderground v.1.15,2013-05-30 04:05:00,
2013-05-29 23:10:00,74.6,68.4,29.89,SSE,148,1.0,1.0,81,0.00,,,0.01,Wunderground v.1.15,2013-05-30 04:10:00,
2013-05-29 23:15:00,74.5,68.3,29.89,SSE,148,1.0,1.0,81,0.00,,,0.01,Wunderground v.1.15,2013-05-30 04:15:00,
2013-05-29 23:20:00,74.3,68.1,29.89,SSE,157,1.0,2.0,81,0.00,,,0.01,Wunderground v.1.15,2013-05-30 04:20:00,
2013-05-29 23:25:00,74.2,68.0,29.89,SSE,161,1.0,5.0,81,0.00,,,0.01,Wunderground v.1.15,2013-05-30 04:25:00,
2013-05-29 23:35:00,74.1,68.3,29.90,SE,144,1.0,1.0,82,0.00,,,0.01,Wunderground v.1.15,2013-05-30 04:35:00,
2013-05-29 23:40:00,74.0,68.2,29.90,SE,130,1.0,1.0,82,0.00,,,0.01,Wunderground v.1.15,2013-05-30 04:40:00,
2013-05-29 23:45:00,74.0,68.2,29.90,ESE,122,1.0,2.0,82,0.00,,,0.01,Wunderground v.1.15,2013-05-30 04:45:00,
2013-05-29 23:50:00,73.9,68.1,29.90,SE,134,1.0,1.0,82,0.00,,,0.01,Wunderground v.1.15,2013-05-30 04:50:00,
2013-05-29 23:55:00,73.8,68.0,29.90,SE,125,1.0,1.0,82,0.00,,,0.01,Wunderground v.1.15,2013-05-30 04:55:00,